owner,sensor,date,latitude,longitude,air_pressure(mBar),qcFlag 
LUMCON,ioos:station:LUMCON:103:1,2008-01-02T00:00:00Z,30.1889,-90.1683,1032.5,11111222 
LUMCON,ioos:station:LUMCON:103:1,2008-01-02T01:00:00Z,30.1889,-90.1683,1033.5,11111222 
LUMCON,ioos:station:LUMCON:103:1,2008-01-02T02:00:00Z,30.1889,-90.1683,1034.1,11111222 
LUMCON,ioos:station:LUMCON:103:1,2008-01-02T03:00:00Z,30.1889,-90.1683,1034.6,11111222 
LUMCON,ioos:station:LUMCON:103:1,2008-01-02T04:00:00Z,30.1889,-90.1683,1035.0,11111222 
LUMCON,ioos:station:LUMCON:103:1,2008-01-02T05:00:00Z,30.1889,-90.1683,1035.2,11111222 
LUMCON,ioos:station:LUMCON:103:1,2008-01-02T06:00:00Z,30.1889,-90.1683,1035.6,11111222 
LUMCON,ioos:station:LUMCON:103:1,2008-01-02T07:00:00Z,30.1889,-90.1683,1035.7,11111222 
LUMCON,ioos:station:LUMCON:103:1,2008-01-02T08:00:00Z,30.1889,-90.1683,1036.0,11111222 
LUMCON,ioos:station:LUMCON:103:1,2008-01-02T09:00:00Z,30.1889,-90.1683,1036.2,11111222 
LUMCON,ioos:station:LUMCON:103:1,2008-01-02T10:00:00Z,30.1889,-90.1683,1036.7,11111222 
LUMCON,ioos:station:LUMCON:103:1,2008-01-02T11:00:00Z,30.1889,-90.1683,1037.0,11111222 
LUMCON,ioos:station:LUMCON:103:1,2008-01-02T12:00:00Z,30.1889,-90.1683,1037.8,11111222 
LUMCON,ioos:station:LUMCON:103:1,2008-01-02T13:00:00Z,30.1889,-90.1683,1038.4,11111222 
LUMCON,ioos:station:LUMCON:103:1,2008-01-02T14:00:00Z,30.1889,-90.1683,1039.4,11111222 
LUMCON,ioos:station:LUMCON:103:1,2008-01-02T15:00:00Z,30.1889,-90.1683,1040.4,11111222 
LUMCON,ioos:station:LUMCON:103:1,2008-01-02T16:00:00Z,30.1889,-90.1683,1040.5,11111222 
LUMCON,ioos:station:LUMCON:103:1,2008-01-02T17:00:00Z,30.1889,-90.1683,1040.3,11111222 
LUMCON,ioos:station:LUMCON:103:1,2008-01-02T19:00:00Z,30.1889,-90.1683,1038.4,11111222 
LUMCON,ioos:station:LUMCON:103:1,2008-01-02T20:00:00Z,30.1889,-90.1683,1038.0,11111222 
LUMCON,ioos:station:LUMCON:103:1,2008-01-02T21:00:00Z,30.1889,-90.1683,1037.8,11111222 
LUMCON,ioos:station:LUMCON:103:1,2008-01-02T22:00:00Z,30.1889,-90.1683,1038.1,11111222 
LUMCON,ioos:station:LUMCON:103:1,2008-01-02T23:00:00Z,30.1889,-90.1683,1038.5,11111222 
LUMCON,ioos:station:LUMCON:103:1,2008-01-03T00:00:00Z,30.1889,-90.1683,1039.1,11111222 
LUMCON,ioos:station:LUMCON:103:1,2008-01-03T01:00:00Z,30.1889,-90.1683,1039.6,11111222 
LUMCON,ioos:station:LUMCON:103:1,2008-01-03T02:00:00Z,30.1889,-90.1683,1040.2,11111222 
LUMCON,ioos:station:LUMCON:103:1,2008-01-03T03:00:00Z,30.1889,-90.1683,1041.0,11111222 
LUMCON,ioos:station:LUMCON:103:1,2008-01-03T04:00:00Z,30.1889,-90.1683,1041.3,11111222 
LUMCON,ioos:station:LUMCON:103:1,2008-01-03T05:00:00Z,30.1889,-90.1683,1040.9,11111222 
LUMCON,ioos:station:LUMCON:103:1,2008-01-03T06:00:00Z,30.1889,-90.1683,1040.9,11111222 
LUMCON,ioos:station:LUMCON:103:1,2008-01-03T07:00:00Z,30.1889,-90.1683,1041.0,11111222 
LUMCON,ioos:station:LUMCON:103:1,2008-01-03T08:00:00Z,30.1889,-90.1683,1040.8,11111222 
LUMCON,ioos:station:LUMCON:103:1,2008-01-03T09:00:00Z,30.1889,-90.1683,1041.0,11111222 
LUMCON,ioos:station:LUMCON:103:1,2008-01-03T10:00:00Z,30.1889,-90.1683,1040.9,11111222 
LUMCON,ioos:station:LUMCON:103:1,2008-01-03T11:00:00Z,30.1889,-90.1683,1040.9,11111222 
LUMCON,ioos:station:LUMCON:103:1,2008-01-03T12:00:00Z,30.1889,-90.1683,1041.4,11111222 
LUMCON,ioos:station:LUMCON:103:1,2008-01-03T13:00:00Z,30.1889,-90.1683,1041.4,11111222 
LUMCON,ioos:station:LUMCON:103:1,2008-01-03T14:00:00Z,30.1889,-90.1683,1041.9,11111222 
LUMCON,ioos:station:LUMCON:103:1,2008-01-03T15:00:00Z,30.1889,-90.1683,1042.3,11111222 
LUMCON,ioos:station:LUMCON:103:1,2008-01-03T16:00:00Z,30.1889,-90.1683,1042.8,11111222 
LUMCON,ioos:station:LUMCON:103:1,2008-01-03T17:00:00Z,30.1889,-90.1683,1042.4,11111222 
LUMCON,ioos:station:LUMCON:103:1,2008-01-03T18:00:00Z,30.1889,-90.1683,1041.3,11111222 
LUMCON,ioos:station:LUMCON:103:1,2008-01-03T19:00:00Z,30.1889,-90.1683,1040.1,11111222 
LUMCON,ioos:station:LUMCON:103:1,2008-01-03T20:00:00Z,30.1889,-90.1683,1039.0,11111222 
LUMCON,ioos:station:LUMCON:103:1,2008-01-03T21:00:00Z,30.1889,-90.1683,1038.6,11111222 
LUMCON,ioos:station:LUMCON:103:1,2008-01-03T22:00:00Z,30.1889,-90.1683,1038.4,11111222 
LUMCON,ioos:station:LUMCON:103:1,2008-01-03T23:00:00Z,30.1889,-90.1683,1038.0,11111222 
LUMCON,ioos:station:LUMCON:103:1,2008-01-04T00:00:00Z,30.1889,-90.1683,1037.8,11111222 
LUMCON,ioos:station:LUMCON:103:1,2008-01-04T01:00:00Z,30.1889,-90.1683,1037.7,11111222 
LUMCON,ioos:station:LUMCON:103:1,2008-01-04T02:00:00Z,30.1889,-90.1683,1037.4,11111222 
LUMCON,ioos:station:LUMCON:103:1,2008-01-04T03:00:00Z,30.1889,-90.1683,1037.1,11111222 
LUMCON,ioos:station:LUMCON:103:1,2008-01-04T04:00:00Z,30.1889,-90.1683,1037.1,11111222 
LUMCON,ioos:station:LUMCON:103:1,2008-01-04T05:00:00Z,30.1889,-90.1683,1036.4,11111222 
LUMCON,ioos:station:LUMCON:103:1,2008-01-04T06:00:00Z,30.1889,-90.1683,1035.5,11111222 
LUMCON,ioos:station:LUMCON:103:1,2008-01-04T07:00:00Z,30.1889,-90.1683,1035.0,11111222 
LUMCON,ioos:station:LUMCON:103:1,2008-01-04T08:00:00Z,30.1889,-90.1683,1034.3,11111222 
LUMCON,ioos:station:LUMCON:103:1,2008-01-04T09:00:00Z,30.1889,-90.1683,1034.1,11111222 
LUMCON,ioos:station:LUMCON:103:1,2008-01-04T10:00:00Z,30.1889,-90.1683,1033.8,11111222 
LUMCON,ioos:station:LUMCON:103:1,2008-01-04T11:00:00Z,30.1889,-90.1683,1033.6,11111222 
LUMCON,ioos:station:LUMCON:103:1,2008-01-04T12:00:00Z,30.1889,-90.1683,1033.8,11111222 
LUMCON,ioos:station:LUMCON:103:1,2008-01-04T13:00:00Z,30.1889,-90.1683,1034.0,11111222 
LUMCON,ioos:station:LUMCON:103:1,2008-01-04T14:00:00Z,30.1889,-90.1683,1034.0,11111222 
LUMCON,ioos:station:LUMCON:103:1,2008-01-04T15:00:00Z,30.1889,-90.1683,1034.2,11111222 
LUMCON,ioos:station:LUMCON:103:1,2008-01-04T16:00:00Z,30.1889,-90.1683,1034.2,11111222 
LUMCON,ioos:station:LUMCON:103:1,2008-01-04T17:00:00Z,30.1889,-90.1683,1033.5,11111222 
LUMCON,ioos:station:LUMCON:103:1,2008-01-04T18:00:00Z,30.1889,-90.1683,1032.6,11111222 
LUMCON,ioos:station:LUMCON:103:1,2008-01-04T19:00:00Z,30.1889,-90.1683,1031.4,11111222 
LUMCON,ioos:station:LUMCON:103:1,2008-01-04T20:00:00Z,30.1889,-90.1683,1030.7,11111222 
LUMCON,ioos:station:LUMCON:103:1,2008-01-04T21:00:00Z,30.1889,-90.1683,1030.5,11111222 
LUMCON,ioos:station:LUMCON:103:1,2008-01-04T22:00:00Z,30.1889,-90.1683,1030.0,11111222 
LUMCON,ioos:station:LUMCON:103:1,2008-01-04T23:00:00Z,30.1889,-90.1683,1029.6,11111222 
LUMCON,ioos:station:LUMCON:103:1,2008-01-05T00:00:00Z,30.1889,-90.1683,1029.3,11111222 
LUMCON,ioos:station:LUMCON:103:1,2008-01-05T01:00:00Z,30.1889,-90.1683,1029.1,11111222 
LUMCON,ioos:station:LUMCON:103:1,2008-01-05T02:00:00Z,30.1889,-90.1683,1028.8,11111222 
LUMCON,ioos:station:LUMCON:103:1,2008-01-05T03:00:00Z,30.1889,-90.1683,1028.7,11111222 
LUMCON,ioos:station:LUMCON:103:1,2008-01-05T04:00:00Z,30.1889,-90.1683,1028.1,11111222 
LUMCON,ioos:station:LUMCON:103:1,2008-01-05T05:00:00Z,30.1889,-90.1683,1027.5,11111222 
LUMCON,ioos:station:LUMCON:103:1,2008-01-05T06:00:00Z,30.1889,-90.1683,1026.8,11111222 
LUMCON,ioos:station:LUMCON:103:1,2008-01-05T07:00:00Z,30.1889,-90.1683,1026.4,11111222 
LUMCON,ioos:station:LUMCON:103:1,2008-01-05T08:00:00Z,30.1889,-90.1683,1025.4,11111222 
LUMCON,ioos:station:LUMCON:103:1,2008-01-05T09:00:00Z,30.1889,-90.1683,1024.7,11111222 
LUMCON,ioos:station:LUMCON:103:1,2008-01-05T10:00:00Z,30.1889,-90.1683,1023.9,11111222 
LUMCON,ioos:station:LUMCON:103:1,2008-01-05T11:00:00Z,30.1889,-90.1683,1024.0,11111222 
LUMCON,ioos:station:LUMCON:103:1,2008-01-05T12:00:00Z,30.1889,-90.1683,1024.5,11111222 
LUMCON,ioos:station:LUMCON:103:1,2008-01-05T13:00:00Z,30.1889,-90.1683,1024.6,11111222 
LUMCON,ioos:station:LUMCON:103:1,2008-01-05T14:00:00Z,30.1889,-90.1683,1025.0,11111222 
LUMCON,ioos:station:LUMCON:103:1,2008-01-05T15:00:00Z,30.1889,-90.1683,1025.3,11111222 
LUMCON,ioos:station:LUMCON:103:1,2008-01-05T16:00:00Z,30.1889,-90.1683,1025.5,11111222 
LUMCON,ioos:station:LUMCON:103:1,2008-01-05T17:00:00Z,30.1889,-90.1683,1025.3,11111222 
LUMCON,ioos:station:LUMCON:103:1,2008-01-05T18:00:00Z,30.1889,-90.1683,1024.4,11111222 
LUMCON,ioos:station:LUMCON:103:1,2008-01-05T19:00:00Z,30.1889,-90.1683,1023.4,11111222 
LUMCON,ioos:station:LUMCON:103:1,2008-01-05T20:00:00Z,30.1889,-90.1683,1022.9,11111222 
LUMCON,ioos:station:LUMCON:103:1,2008-01-05T21:00:00Z,30.1889,-90.1683,1022.2,11111222 
LUMCON,ioos:station:LUMCON:103:1,2008-01-05T22:00:00Z,30.1889,-90.1683,1021.9,11111222 
LUMCON,ioos:station:LUMCON:103:1,2008-01-05T23:00:00Z,30.1889,-90.1683,1022.0,11111222 
LUMCON,ioos:station:LUMCON:103:1,2008-01-06T00:00:00Z,30.1889,-90.1683,1022.0,11111222 
LUMCON,ioos:station:LUMCON:103:1,2008-01-06T01:00:00Z,30.1889,-90.1683,1022.1,11111222 
LUMCON,ioos:station:LUMCON:103:1,2008-01-06T02:00:00Z,30.1889,-90.1683,1022.3,11111222 
LUMCON,ioos:station:LUMCON:103:1,2008-01-06T03:00:00Z,30.1889,-90.1683,1022.3,11111222 
LUMCON,ioos:station:LUMCON:103:1,2008-01-06T08:00:00Z,30.1889,-90.1683,1021.1,11111222 
LUMCON,ioos:station:LUMCON:103:1,2008-01-06T09:00:00Z,30.1889,-90.1683,1020.8,11111222 
LUMCON,ioos:station:LUMCON:103:1,2008-01-06T10:00:00Z,30.1889,-90.1683,1020.8,11111222 
LUMCON,ioos:station:LUMCON:103:1,2008-01-06T11:00:00Z,30.1889,-90.1683,1020.7,11111222 
LUMCON,ioos:station:LUMCON:103:1,2008-01-06T19:00:00Z,30.1889,-90.1683,1021.2,11111222 
LUMCON,ioos:station:LUMCON:103:1,2008-01-07T01:00:00Z,30.1889,-90.1683,1020.7,11111222 
LUMCON,ioos:station:LUMCON:103:1,2008-01-07T15:00:00Z,30.1889,-90.1683,1022.1,11111222 
LUMCON,ioos:station:LUMCON:103:1,2008-01-08T02:00:00Z,30.1889,-90.1683,1019.4,11111222 
LUMCON,ioos:station:LUMCON:103:1,2008-01-08T03:00:00Z,30.1889,-90.1683,1019.2,11111222 
LUMCON,ioos:station:LUMCON:103:1,2008-01-08T04:00:00Z,30.1889,-90.1683,1019.1,11111222 
LUMCON,ioos:station:LUMCON:103:1,2008-01-08T05:00:00Z,30.1889,-90.1683,1018.9,11111222 
LUMCON,ioos:station:LUMCON:103:1,2008-01-08T06:00:00Z,30.1889,-90.1683,1018.3,11111222 
LUMCON,ioos:station:LUMCON:103:1,2008-01-08T10:00:00Z,30.1889,-90.1683,1017.7,11111222 
LUMCON,ioos:station:LUMCON:103:1,2008-01-08T17:00:00Z,30.1889,-90.1683,1018.8,11111222 
LUMCON,ioos:station:LUMCON:103:1,2008-01-08T18:00:00Z,30.1889,-90.1683,1018.0,11111222 
LUMCON,ioos:station:LUMCON:103:1,2008-01-08T19:00:00Z,30.1889,-90.1683,1017.0,11111222 
LUMCON,ioos:station:LUMCON:103:1,2008-01-08T20:00:00Z,30.1889,-90.1683,1016.5,11111222 
LUMCON,ioos:station:LUMCON:103:1,2008-01-08T21:00:00Z,30.1889,-90.1683,1016.4,11111222 
LUMCON,ioos:station:LUMCON:103:1,2008-01-08T22:00:00Z,30.1889,-90.1683,1016.7,11111222 
LUMCON,ioos:station:LUMCON:103:1,2008-01-08T23:00:00Z,30.1889,-90.1683,1016.9,11111222 
LUMCON,ioos:station:LUMCON:103:1,2008-01-09T00:00:00Z,30.1889,-90.1683,1016.6,11111222 
LUMCON,ioos:station:LUMCON:103:1,2008-01-09T01:00:00Z,30.1889,-90.1683,1017.1,11111222 
LUMCON,ioos:station:LUMCON:103:1,2008-01-09T02:00:00Z,30.1889,-90.1683,1017.2,11111222 
LUMCON,ioos:station:LUMCON:103:1,2008-01-09T03:00:00Z,30.1889,-90.1683,1017.2,11111222 
LUMCON,ioos:station:LUMCON:103:1,2008-01-09T05:00:00Z,30.1889,-90.1683,1017.6,11111222 
LUMCON,ioos:station:LUMCON:103:1,2008-01-09T06:00:00Z,30.1889,-90.1683,1017.3,11111222 
LUMCON,ioos:station:LUMCON:103:1,2008-01-09T07:00:00Z,30.1889,-90.1683,1017.3,11111222 
LUMCON,ioos:station:LUMCON:103:1,2008-01-09T08:00:00Z,30.1889,-90.1683,1017.4,11111222 
LUMCON,ioos:station:LUMCON:103:1,2008-01-09T09:00:00Z,30.1889,-90.1683,1017.4,11111222 
LUMCON,ioos:station:LUMCON:103:1,2008-01-09T10:00:00Z,30.1889,-90.1683,1017.3,11111222 
LUMCON,ioos:station:LUMCON:103:1,2008-01-09T11:00:00Z,30.1889,-90.1683,1017.7,11111222 
LUMCON,ioos:station:LUMCON:103:1,2008-01-09T12:00:00Z,30.1889,-90.1683,1018.2,11111222 
LUMCON,ioos:station:LUMCON:103:1,2008-01-09T13:00:00Z,30.1889,-90.1683,1018.4,11111222 
LUMCON,ioos:station:LUMCON:103:1,2008-01-09T14:00:00Z,30.1889,-90.1683,1019.0,11111222 
LUMCON,ioos:station:LUMCON:103:1,2008-01-09T15:00:00Z,30.1889,-90.1683,1019.4,11111222 
LUMCON,ioos:station:LUMCON:103:1,2008-01-09T16:00:00Z,30.1889,-90.1683,1019.4,11111222 
LUMCON,ioos:station:LUMCON:103:1,2008-01-09T17:00:00Z,30.1889,-90.1683,1019.4,11111222 
LUMCON,ioos:station:LUMCON:103:1,2008-01-09T18:00:00Z,30.1889,-90.1683,1018.1,11111222 
LUMCON,ioos:station:LUMCON:103:1,2008-01-09T19:00:00Z,30.1889,-90.1683,1017.0,11111222 
LUMCON,ioos:station:LUMCON:103:1,2008-01-09T20:00:00Z,30.1889,-90.1683,1015.9,11111222 
LUMCON,ioos:station:LUMCON:103:1,2008-01-09T21:00:00Z,30.1889,-90.1683,1016.4,11111222 
LUMCON,ioos:station:LUMCON:103:1,2008-01-09T22:00:00Z,30.1889,-90.1683,1015.9,11111222 
LUMCON,ioos:station:LUMCON:103:1,2008-01-09T23:00:00Z,30.1889,-90.1683,1015.7,11111222 
LUMCON,ioos:station:LUMCON:103:1,2008-01-10T00:00:00Z,30.1889,-90.1683,1015.6,11111222 
LUMCON,ioos:station:LUMCON:103:1,2008-01-10T01:00:00Z,30.1889,-90.1683,1015.7,11111222 
LUMCON,ioos:station:LUMCON:103:1,2008-01-10T20:00:00Z,30.1889,-90.1683,1008.8,11111222 
LUMCON,ioos:station:LUMCON:103:1,2008-01-10T21:00:00Z,30.1889,-90.1683,1008.8,11111222 
LUMCON,ioos:station:LUMCON:103:1,2008-01-11T01:00:00Z,30.1889,-90.1683,1009.8,11111222 
LUMCON,ioos:station:LUMCON:103:1,2008-01-11T02:00:00Z,30.1889,-90.1683,1010.1,11111222 
LUMCON,ioos:station:LUMCON:103:1,2008-01-11T03:00:00Z,30.1889,-90.1683,1010.1,11111222 
LUMCON,ioos:station:LUMCON:103:1,2008-01-11T04:00:00Z,30.1889,-90.1683,1010.4,11111222 
LUMCON,ioos:station:LUMCON:103:1,2008-01-11T05:00:00Z,30.1889,-90.1683,1010.5,11111222 
LUMCON,ioos:station:LUMCON:103:1,2008-01-11T06:00:00Z,30.1889,-90.1683,1010.9,11111222 
LUMCON,ioos:station:LUMCON:103:1,2008-01-11T07:00:00Z,30.1889,-90.1683,1011.2,11111222 
LUMCON,ioos:station:LUMCON:103:1,2008-01-11T08:00:00Z,30.1889,-90.1683,1011.5,11111222 
LUMCON,ioos:station:LUMCON:103:1,2008-01-11T09:00:00Z,30.1889,-90.1683,1011.7,11111222 
LUMCON,ioos:station:LUMCON:103:1,2008-01-11T10:00:00Z,30.1889,-90.1683,1011.8,11111222 
LUMCON,ioos:station:LUMCON:103:1,2008-01-11T11:00:00Z,30.1889,-90.1683,1012.3,11111222 
LUMCON,ioos:station:LUMCON:103:1,2008-01-11T12:00:00Z,30.1889,-90.1683,1012.9,11111222 
LUMCON,ioos:station:LUMCON:103:1,2008-01-11T13:00:00Z,30.1889,-90.1683,1013.2,11111222 
LUMCON,ioos:station:LUMCON:103:1,2008-01-11T14:00:00Z,30.1889,-90.1683,1014.0,11111222 
LUMCON,ioos:station:LUMCON:103:1,2008-01-11T15:00:00Z,30.1889,-90.1683,1014.8,11111222 
LUMCON,ioos:station:LUMCON:103:1,2008-01-11T16:00:00Z,30.1889,-90.1683,1015.0,11111222 
LUMCON,ioos:station:LUMCON:103:1,2008-01-11T17:00:00Z,30.1889,-90.1683,1014.8,11111222 
LUMCON,ioos:station:LUMCON:103:1,2008-01-11T18:00:00Z,30.1889,-90.1683,1013.7,11111222 
LUMCON,ioos:station:LUMCON:103:1,2008-01-11T19:00:00Z,30.1889,-90.1683,1012.6,11111222 
LUMCON,ioos:station:LUMCON:103:1,2008-01-11T20:00:00Z,30.1889,-90.1683,1012.2,11111222 
LUMCON,ioos:station:LUMCON:103:1,2008-01-11T21:00:00Z,30.1889,-90.1683,1012.0,11111222 
LUMCON,ioos:station:LUMCON:103:1,2008-01-11T22:00:00Z,30.1889,-90.1683,1012.0,11111222 
LUMCON,ioos:station:LUMCON:103:1,2008-01-11T23:00:00Z,30.1889,-90.1683,1012.0,11111222 
LUMCON,ioos:station:LUMCON:103:1,2008-01-12T00:00:00Z,30.1889,-90.1683,1012.3,11111222 
LUMCON,ioos:station:LUMCON:103:1,2008-01-12T02:00:00Z,30.1889,-90.1683,1012.9,11111222 
LUMCON,ioos:station:LUMCON:103:1,2008-01-12T03:00:00Z,30.1889,-90.1683,1013.1,11111222 
LUMCON,ioos:station:LUMCON:103:1,2008-01-12T04:00:00Z,30.1889,-90.1683,1013.2,11111222 
LUMCON,ioos:station:LUMCON:103:1,2008-01-12T05:00:00Z,30.1889,-90.1683,1013.2,11111222 
LUMCON,ioos:station:LUMCON:103:1,2008-01-12T06:00:00Z,30.1889,-90.1683,1012.9,11111222 
LUMCON,ioos:station:LUMCON:103:1,2008-01-12T07:00:00Z,30.1889,-90.1683,1012.8,11111222 
LUMCON,ioos:station:LUMCON:103:1,2008-01-12T08:00:00Z,30.1889,-90.1683,1013.0,11111222 
LUMCON,ioos:station:LUMCON:103:1,2008-01-12T09:00:00Z,30.1889,-90.1683,1013.0,11111222 
LUMCON,ioos:station:LUMCON:103:1,2008-01-12T10:00:00Z,30.1889,-90.1683,1013.0,11111222 
LUMCON,ioos:station:LUMCON:103:1,2008-01-12T11:00:00Z,30.1889,-90.1683,1013.3,11111222 
LUMCON,ioos:station:LUMCON:103:1,2008-01-12T12:00:00Z,30.1889,-90.1683,1013.8,11111222 
LUMCON,ioos:station:LUMCON:103:1,2008-01-12T13:00:00Z,30.1889,-90.1683,1014.2,11111222 
LUMCON,ioos:station:LUMCON:103:1,2008-01-12T14:00:00Z,30.1889,-90.1683,1015.1,11111222 
LUMCON,ioos:station:LUMCON:103:1,2008-01-12T15:00:00Z,30.1889,-90.1683,1015.5,11111222 
LUMCON,ioos:station:LUMCON:103:1,2008-01-12T16:00:00Z,30.1889,-90.1683,1015.9,11111222 
LUMCON,ioos:station:LUMCON:103:1,2008-01-12T17:00:00Z,30.1889,-90.1683,1015.6,11111222 
LUMCON,ioos:station:LUMCON:103:1,2008-01-12T18:00:00Z,30.1889,-90.1683,1014.5,11111222 
LUMCON,ioos:station:LUMCON:103:1,2008-01-12T19:00:00Z,30.1889,-90.1683,1014.2,11111222 
LUMCON,ioos:station:LUMCON:103:1,2008-01-12T20:00:00Z,30.1889,-90.1683,1013.6,11111222 
LUMCON,ioos:station:LUMCON:103:1,2008-01-12T21:00:00Z,30.1889,-90.1683,1013.3,11111222 
LUMCON,ioos:station:LUMCON:103:1,2008-01-12T22:00:00Z,30.1889,-90.1683,1013.1,11111222 
LUMCON,ioos:station:LUMCON:103:1,2008-01-12T23:00:00Z,30.1889,-90.1683,1012.6,11111222 
LUMCON,ioos:station:LUMCON:103:1,2008-01-13T00:00:00Z,30.1889,-90.1683,1013.0,11111222 
LUMCON,ioos:station:LUMCON:103:1,2008-01-13T02:00:00Z,30.1889,-90.1683,1013.4,11111222 
LUMCON,ioos:station:LUMCON:103:1,2008-01-13T03:00:00Z,30.1889,-90.1683,1014.0,11111222 
LUMCON,ioos:station:LUMCON:103:1,2008-01-13T04:00:00Z,30.1889,-90.1683,1014.2,11111222 
LUMCON,ioos:station:LUMCON:103:1,2008-01-13T05:00:00Z,30.1889,-90.1683,1014.0,11111222 
LUMCON,ioos:station:LUMCON:103:1,2008-01-13T06:00:00Z,30.1889,-90.1683,1013.6,11111222 
LUMCON,ioos:station:LUMCON:103:1,2008-01-13T07:00:00Z,30.1889,-90.1683,1013.8,11111222 
LUMCON,ioos:station:LUMCON:103:1,2008-01-13T08:00:00Z,30.1889,-90.1683,1014.1,11111222 
LUMCON,ioos:station:LUMCON:103:1,2008-01-13T09:00:00Z,30.1889,-90.1683,1013.8,11111222 
LUMCON,ioos:station:LUMCON:103:1,2008-01-13T10:00:00Z,30.1889,-90.1683,1013.7,11111222 
LUMCON,ioos:station:LUMCON:103:1,2008-01-13T11:00:00Z,30.1889,-90.1683,1014.2,11111222 
LUMCON,ioos:station:LUMCON:103:1,2008-01-13T12:00:00Z,30.1889,-90.1683,1015.0,11111222 
LUMCON,ioos:station:LUMCON:103:1,2008-01-13T13:00:00Z,30.1889,-90.1683,1015.8,11111222 
LUMCON,ioos:station:LUMCON:103:1,2008-01-13T14:00:00Z,30.1889,-90.1683,1016.9,11111222 
LUMCON,ioos:station:LUMCON:103:1,2008-01-13T15:00:00Z,30.1889,-90.1683,1018.0,11111222 
LUMCON,ioos:station:LUMCON:103:1,2008-01-13T16:00:00Z,30.1889,-90.1683,1019.0,11111222 
LUMCON,ioos:station:LUMCON:103:1,2008-01-13T17:00:00Z,30.1889,-90.1683,1019.0,11111222 
LUMCON,ioos:station:LUMCON:103:1,2008-01-13T18:00:00Z,30.1889,-90.1683,1018.4,11111222 
LUMCON,ioos:station:LUMCON:103:1,2008-01-13T19:00:00Z,30.1889,-90.1683,1017.9,11111222 
LUMCON,ioos:station:LUMCON:103:1,2008-01-13T20:00:00Z,30.1889,-90.1683,1017.9,11111222 
LUMCON,ioos:station:LUMCON:103:1,2008-01-13T21:00:00Z,30.1889,-90.1683,1018.3,11111222 
LUMCON,ioos:station:LUMCON:103:1,2008-01-13T22:00:00Z,30.1889,-90.1683,1018.6,11111222 
LUMCON,ioos:station:LUMCON:103:1,2008-01-13T23:00:00Z,30.1889,-90.1683,1019.2,11111222 
LUMCON,ioos:station:LUMCON:103:1,2008-01-14T00:00:00Z,30.1889,-90.1683,1020.0,11111222 
LUMCON,ioos:station:LUMCON:103:1,2008-01-14T01:00:00Z,30.1889,-90.1683,1020.7,11111222 
LUMCON,ioos:station:LUMCON:103:1,2008-01-14T02:00:00Z,30.1889,-90.1683,1021.6,11111222 
LUMCON,ioos:station:LUMCON:103:1,2008-01-14T03:00:00Z,30.1889,-90.1683,1022.3,11111222 
LUMCON,ioos:station:LUMCON:103:1,2008-01-14T04:00:00Z,30.1889,-90.1683,1022.9,11111222 
LUMCON,ioos:station:LUMCON:103:1,2008-01-14T05:00:00Z,30.1889,-90.1683,1023.5,11111222 
LUMCON,ioos:station:LUMCON:103:1,2008-01-14T06:00:00Z,30.1889,-90.1683,1023.7,11111222 
LUMCON,ioos:station:LUMCON:103:1,2008-01-14T07:00:00Z,30.1889,-90.1683,1023.8,11111222 
LUMCON,ioos:station:LUMCON:103:1,2008-01-14T08:00:00Z,30.1889,-90.1683,1024.3,11111222 
LUMCON,ioos:station:LUMCON:103:1,2008-01-14T09:00:00Z,30.1889,-90.1683,1024.3,11111222 
LUMCON,ioos:station:LUMCON:103:1,2008-01-14T10:00:00Z,30.1889,-90.1683,1024.2,11111222 
LUMCON,ioos:station:LUMCON:103:1,2008-01-14T11:00:00Z,30.1889,-90.1683,1024.8,11111222 
LUMCON,ioos:station:LUMCON:103:1,2008-01-14T12:00:00Z,30.1889,-90.1683,1025.4,11111222 
LUMCON,ioos:station:LUMCON:103:1,2008-01-14T13:00:00Z,30.1889,-90.1683,1025.9,11111222 
LUMCON,ioos:station:LUMCON:103:1,2008-01-14T14:00:00Z,30.1889,-90.1683,1026.7,11111222 
LUMCON,ioos:station:LUMCON:103:1,2008-01-14T15:00:00Z,30.1889,-90.1683,1027.9,11111222 
LUMCON,ioos:station:LUMCON:103:1,2008-01-14T16:00:00Z,30.1889,-90.1683,1028.5,11111222 
LUMCON,ioos:station:LUMCON:103:1,2008-01-14T17:00:00Z,30.1889,-90.1683,1028.0,11111222 
LUMCON,ioos:station:LUMCON:103:1,2008-01-14T18:00:00Z,30.1889,-90.1683,1026.6,11111222 
LUMCON,ioos:station:LUMCON:103:1,2008-01-14T19:00:00Z,30.1889,-90.1683,1025.5,11111222 
LUMCON,ioos:station:LUMCON:103:1,2008-01-14T20:00:00Z,30.1889,-90.1683,1024.5,11111222 
LUMCON,ioos:station:LUMCON:103:1,2008-01-14T21:00:00Z,30.1889,-90.1683,1024.0,11111222 
LUMCON,ioos:station:LUMCON:103:1,2008-01-14T22:00:00Z,30.1889,-90.1683,1023.9,11111222 
LUMCON,ioos:station:LUMCON:103:1,2008-01-14T23:00:00Z,30.1889,-90.1683,1024.1,11111222 
LUMCON,ioos:station:LUMCON:103:1,2008-01-15T00:00:00Z,30.1889,-90.1683,1024.3,11111222 
LUMCON,ioos:station:LUMCON:103:1,2008-01-15T01:00:00Z,30.1889,-90.1683,1024.4,11111222 
LUMCON,ioos:station:LUMCON:103:1,2008-01-15T02:00:00Z,30.1889,-90.1683,1024.9,11111222 
LUMCON,ioos:station:LUMCON:103:1,2008-01-15T03:00:00Z,30.1889,-90.1683,1025.1,11111222 
LUMCON,ioos:station:LUMCON:103:1,2008-01-15T04:00:00Z,30.1889,-90.1683,1025.0,11111222 
LUMCON,ioos:station:LUMCON:103:1,2008-01-15T05:00:00Z,30.1889,-90.1683,1024.8,11111222 
LUMCON,ioos:station:LUMCON:103:1,2008-01-15T06:00:00Z,30.1889,-90.1683,1024.4,11111222 
LUMCON,ioos:station:LUMCON:103:1,2008-01-15T07:00:00Z,30.1889,-90.1683,1023.9,11111222 
LUMCON,ioos:station:LUMCON:103:1,2008-01-15T08:00:00Z,30.1889,-90.1683,1023.9,11111222 
LUMCON,ioos:station:LUMCON:103:1,2008-01-15T09:00:00Z,30.1889,-90.1683,1023.7,11111222 
LUMCON,ioos:station:LUMCON:103:1,2008-01-15T10:00:00Z,30.1889,-90.1683,1023.1,11111222 
LUMCON,ioos:station:LUMCON:103:1,2008-01-15T11:00:00Z,30.1889,-90.1683,1022.9,11111222 
LUMCON,ioos:station:LUMCON:103:1,2008-01-15T12:00:00Z,30.1889,-90.1683,1023.0,11111222 
LUMCON,ioos:station:LUMCON:103:1,2008-01-15T13:00:00Z,30.1889,-90.1683,1023.1,11111222 
LUMCON,ioos:station:LUMCON:103:1,2008-01-15T14:00:00Z,30.1889,-90.1683,1023.3,11111222 
LUMCON,ioos:station:LUMCON:103:1,2008-01-15T15:00:00Z,30.1889,-90.1683,1024.5,11111222 
LUMCON,ioos:station:LUMCON:103:1,2008-01-15T16:00:00Z,30.1889,-90.1683,1024.7,11111222 
LUMCON,ioos:station:LUMCON:103:1,2008-01-15T17:00:00Z,30.1889,-90.1683,1024.1,11111222 
LUMCON,ioos:station:LUMCON:103:1,2008-01-15T18:00:00Z,30.1889,-90.1683,1022.5,11111222 
LUMCON,ioos:station:LUMCON:103:1,2008-01-15T19:00:00Z,30.1889,-90.1683,1020.8,11111222 
LUMCON,ioos:station:LUMCON:103:1,2008-01-15T20:00:00Z,30.1889,-90.1683,1019.5,11111222 
LUMCON,ioos:station:LUMCON:103:1,2008-01-15T21:00:00Z,30.1889,-90.1683,1019.3,11111222 
LUMCON,ioos:station:LUMCON:103:1,2008-01-15T23:00:00Z,30.1889,-90.1683,1019.6,11111222 
LUMCON,ioos:station:LUMCON:103:1,2008-01-16T00:00:00Z,30.1889,-90.1683,1019.3,11111222 
LUMCON,ioos:station:LUMCON:103:1,2008-01-16T01:00:00Z,30.1889,-90.1683,1019.4,11111222 
LUMCON,ioos:station:LUMCON:103:1,2008-01-16T02:00:00Z,30.1889,-90.1683,1019.4,11111222 
LUMCON,ioos:station:LUMCON:103:1,2008-01-16T03:00:00Z,30.1889,-90.1683,1019.2,11111222 
LUMCON,ioos:station:LUMCON:103:1,2008-01-16T04:00:00Z,30.1889,-90.1683,1019.1,11111222 
LUMCON,ioos:station:LUMCON:103:1,2008-01-16T05:00:00Z,30.1889,-90.1683,1018.2,11111222 
LUMCON,ioos:station:LUMCON:103:1,2008-01-16T06:00:00Z,30.1889,-90.1683,1017.5,11111222 
LUMCON,ioos:station:LUMCON:103:1,2008-01-16T07:00:00Z,30.1889,-90.1683,1016.4,11111222 
LUMCON,ioos:station:LUMCON:103:1,2008-01-16T08:00:00Z,30.1889,-90.1683,1016.1,11111222 
LUMCON,ioos:station:LUMCON:103:1,2008-01-16T09:00:00Z,30.1889,-90.1683,1015.2,11111222 